Simultaneous Nadir Overpasses (SNOs) Predictions

Prediction of SNOs between GOES-17 and TERRA Satellite Orbit:

Table of predicted SNOs for the next 14.0 days since TLE Epoch: 9/5/2020
Index Date Time (GOES-17) GOES-17 Lat,Lon TERRA Lat,Lon Distance(km) Time Diff (sec)
1 09/05/2020 07:24:45 0.05,-137.17 0.83,-133.38 430.12 80
2 09/05/2020 19:43:21 -0.05,-137.19 0.24,-138.54 153.33 80
3 09/07/2020 19:33:50 -0.05,-137.23 -0.42,-135.59 186.59 80
4 09/08/2020 07:52:34 0.05,-137.22 -0.69,-140.78 404.90 80
5 09/10/2020 07:40:22 0.05,-137.24 -0.09,-137.82 66.04 80
6 09/12/2020 07:30:51 0.04,-137.25 0.58,-134.87 272.00 80
7 09/12/2020 19:49:26 -0.04,-137.27 0.54,-140.02 312.22 80
8 09/14/2020 19:39:54 -0.04,-137.28 -0.07,-137.06 24.99 80
9 09/16/2020 19:27:43 -0.04,-137.28 -0.74,-134.11 361.51 80
10 09/17/2020 07:49:07 0.04,-137.27 -0.37,-139.30 230.61 80
